Change the Weather History Date:

Tuesday, November 13, 2012

  Actual Average Record
Temperature  
Mean Temperature 52 °F -  
Max Temperature 62 °F 62 °F 79 °F (1989)
Min Temperature 39 °F 36 °F 23 °F (2013)
Degree Days  
Heating Degree Days 14    
Growing Degree Days 2 (Base 50)    
Moisture  
Dew Point 47 °F    
Average Humidity 95    
Maximum Humidity 100    
Minimum Humidity 70    
Precipitation  
Precipitation 0.10 in - - ()
Sea Level Pressure  
Sea Level Pressure 30.33 in    
Wind  
Wind Speed 6 mph (NNW)    
Max Wind Speed 15 mph    
Max Gust Speed 21 mph    
Visibility 9 miles    
Events Rain    
Averages and records for this station are not official NWS values.
T = Trace of Precipitation, MM = Missing Value Source: NWS Daily Summary

Daily Weather History Graph

Daily Weather History Graph

Search for Another Location

Airport or City:

Trip Planner

Search our weather history database for the weather conditions in past years. The results will help you decide how hot, cold, wet, or windy it might be!

Date:

Astronomy

Nov. 13, 2012 Rise Set
Actual Time 6:46 AM EST 5:01 PM EST
Civil Twilight 6:18 AM EST 5:29 PM EST
Nautical Twilight 5:47 AM EST 6:00 PM EST
Astronomical Twilight 5:17 AM EST 6:31 PM EST
Moon 6:21 AM EST (11/13) 4:54 PM EST (11/13)
Length of Visible Light 11h 10m
Length of Day
10h 15m
Waning Crescent, 0% of the Moon is Illuminated
Nov 13
Waning Crescent
Nov 13
New
Nov 20
First Quarter
Nov 28
Full
Dec 6
Last Quarter

Hourly Weather History & Observations

Time (EST) Temp. Windchill Dew Point Humidity Pressure Visibility Wind Dir Wind Speed Gust Speed Precip Events Conditions
12:15 AM 62.6 °F - 59.0 °F 88% 30.20 in 10.0 mi ESE 6.9 mph - N/A   Scattered Clouds
12:35 AM 62.6 °F - 60.8 °F 94% 30.21 in 10.0 mi SSE 4.6 mph - N/A   Scattered Clouds
12:55 AM 60.8 °F - 59.0 °F 94% 30.20 in 10.0 mi SSE 3.5 mph - N/A   Scattered Clouds
1:15 AM 60.8 °F - 59.0 °F 94% 30.20 in 10.0 mi SE 3.5 mph - N/A   Scattered Clouds
1:35 AM 60.8 °F - 59.0 °F 94% 30.19 in 10.0 mi ESE 4.6 mph - N/A   Scattered Clouds
1:55 AM 59.0 °F - 59.0 °F 100% 30.19 in 7.0 mi ESE 4.6 mph - N/A   Clear
2:15 AM 59.0 °F - 59.0 °F 100% 30.18 in 7.0 mi SE 4.6 mph - N/A   Clear
2:35 AM 59.0 °F - 59.0 °F 100% 30.18 in 10.0 mi ESE 5.8 mph - N/A   Clear
2:55 AM 59.0 °F - 59.0 °F 100% 30.18 in 10.0 mi ESE 3.5 mph - N/A   Scattered Clouds
3:15 AM 60.8 °F - 59.0 °F 94% 30.17 in 10.0 mi ESE 4.6 mph - N/A   Overcast
3:35 AM 60.8 °F - 59.0 °F 94% 30.17 in 10.0 mi SE 3.5 mph - N/A   Overcast
3:55 AM 60.8 °F - 60.8 °F 100% 30.17 in 10.0 mi Calm Calm - N/A   Overcast
4:15 AM 60.8 °F - 60.8 °F 100% 30.18 in 10.0 mi Calm Calm - N/A   Overcast
4:35 AM 60.8 °F - 60.8 °F 100% 30.18 in 10.0 mi Calm Calm - N/A   Overcast
4:55 AM 60.8 °F - 60.8 °F 100% 30.18 in 10.0 mi Calm Calm - N/A   Overcast
5:15 AM 60.8 °F - 60.8 °F 100% 30.18 in 7.0 mi SE 3.5 mph - N/A   Overcast
5:35 AM 60.8 °F - 60.8 °F 100% 30.20 in 5.0 mi Calm Calm - 0.01 in Rain Rain
5:55 AM 59.0 °F - 57.2 °F 94% 30.22 in 7.0 mi West 11.5 mph 17.3 mph 0.01 in   Drizzle
6:15 AM 55.4 °F - 53.6 °F 94% 30.23 in 10.0 mi WNW 8.1 mph - N/A   Overcast
6:35 AM 53.6 °F - 53.6 °F 100% 30.24 in 5.0 mi WNW 10.4 mph - 0.01 in   Drizzle
6:55 AM 53.6 °F - 53.6 °F 100% 30.25 in 4.0 mi WNW 9.2 mph 16.1 mph 0.01 in Rain Rain
7:15 AM 51.8 °F - 50.0 °F 94% 30.27 in 7.0 mi North 10.4 mph 16.1 mph 0.01 in   Overcast
7:35 AM 50.0 °F - 50.0 °F 100% 30.29 in 10.0 mi NW 12.7 mph 16.1 mph 0.01 in   Overcast
7:55 AM 50.0 °F - 48.2 °F 94% 30.30 in 10.0 mi NNW 10.4 mph 18.4 mph 0.01 in   Overcast
8:15 AM 48.2 °F - 46.4 °F 93% 30.33 in 10.0 mi NW 15.0 mph 20.7 mph N/A   Overcast
8:35 AM 48.2 °F - 46.4 °F 93% 30.34 in 10.0 mi NNW 10.4 mph 19.6 mph N/A   Overcast
8:55 AM 46.4 °F 41.5 °F 46.4 °F 100% 30.36 in 10.0 mi NNW 10.4 mph 17.3 mph N/A   Overcast
9:15 AM 46.4 °F 42.9 °F 46.4 °F 100% 30.36 in 5.0 mi NNW 6.9 mph - N/A   Overcast
9:35 AM 46.4 °F 40.4 °F 44.6 °F 93% 30.37 in 4.0 mi North 13.8 mph - N/A Rain Light Rain
9:55 AM 46.4 °F 41.9 °F 44.6 °F 93% 30.36 in 7.0 mi North 9.2 mph 17.3 mph 0.01 in Rain Light Rain
10:15 AM 44.6 °F 38.8 °F 44.6 °F 100% 30.37 in 7.0 mi North 11.5 mph 17.3 mph N/A Rain Rain
10:35 AM 44.6 °F 38.8 °F 44.6 °F 100% 30.37 in 10.0 mi North 11.5 mph 16.1 mph 0.01 in   Light Drizzle
10:55 AM 44.6 °F 39.7 °F 44.6 °F 100% 30.38 in - NNW 9.2 mph - 0.01 in   Light Drizzle
11:15 AM 44.6 °F 39.7 °F 44.6 °F 100% 30.38 in 5.0 mi NW 9.2 mph - N/A   Drizzle
11:35 AM 44.6 °F 38.4 °F 44.6 °F 100% 30.37 in 4.0 mi North 12.7 mph - 0.01 in Rain Rain
11:55 AM 42.8 °F 37.5 °F 42.8 °F 100% 30.36 in 10.0 mi North 9.2 mph - 0.02 in   Drizzle
12:15 PM 42.8 °F 36.6 °F 42.8 °F 100% 30.36 in 5.0 mi North 11.5 mph 17.3 mph N/A   Drizzle
12:35 PM 42.8 °F 37.0 °F 42.8 °F 100% 30.35 in 10.0 mi North 10.4 mph - N/A Rain Light Rain
12:55 PM 42.8 °F 38.0 °F 42.8 °F 100% 30.35 in 7.0 mi North 8.1 mph - N/A   Drizzle
1:15 PM 42.8 °F 37.5 °F 42.8 °F 100% 30.34 in 5.0 mi North 9.2 mph 19.6 mph N/A   Drizzle
1:55 PM 42.8 °F 40.1 °F 41.0 °F 93% 30.36 in 4.0 mi North 4.6 mph - 0.01 in Rain Light Rain
2:15 PM 42.8 °F 39.3 °F 41.0 °F 93% 30.36 in 4.0 mi North 5.8 mph - 0.01 in Rain Light Rain
2:35 PM 42.8 °F 38.0 °F 41.0 °F 93% 30.36 in - North 8.1 mph - 0.01 in   Drizzle
2:55 PM 42.8 °F 39.3 °F 42.8 °F 100% 30.36 in 10.0 mi North 5.8 mph - 0.02 in Rain Rain
3:15 PM 42.8 °F 39.3 °F 42.8 °F 100% 30.36 in 10.0 mi North 5.8 mph - N/A   Overcast
3:35 PM 42.8 °F 40.1 °F 42.8 °F 100% 30.36 in 10.0 mi North 4.6 mph - N/A   Overcast
3:55 PM 42.8 °F 41.1 °F 41.0 °F 93% 30.37 in 10.0 mi North 3.5 mph - N/A Rain Light Rain
4:15 PM 42.8 °F 40.1 °F 41.0 °F 93% 30.37 in 10.0 mi NNW 4.6 mph - N/A Rain Light Rain
4:35 PM 42.8 °F 41.1 °F 42.8 °F 100% 30.37 in 10.0 mi NNW 3.5 mph - N/A   Drizzle
4:55 PM 42.8 °F 40.1 °F 42.8 °F 100% 30.38 in 10.0 mi NW 4.6 mph - N/A   Overcast
5:15 PM 42.8 °F 41.1 °F 42.8 °F 100% 30.38 in 10.0 mi NNW 3.5 mph - N/A   Overcast
5:35 PM 42.8 °F 40.1 °F 42.8 °F 100% 30.39 in 10.0 mi NW 4.6 mph - N/A   Overcast
5:55 PM 42.8 °F 41.1 °F 42.8 °F 100% 30.39 in 10.0 mi North 3.5 mph - N/A   Overcast
6:15 PM 42.8 °F 40.1 °F 42.8 °F 100% 30.39 in 10.0 mi North 4.6 mph - N/A   Overcast
6:35 PM 42.8 °F 40.1 °F 41.0 °F 93% 30.40 in 10.0 mi NNW 4.6 mph - N/A   Overcast
6:55 PM 42.8 °F 40.1 °F 41.0 °F 93% 30.41 in - NNW 4.6 mph - N/A   Overcast
7:15 PM 42.8 °F 39.3 °F 41.0 °F 93% 30.41 in 10.0 mi NNW 5.8 mph - N/A   Overcast
7:35 PM 42.8 °F - 41.0 °F 93% 30.42 in 10.0 mi Calm Calm - N/A   Overcast
7:55 PM 42.8 °F 40.1 °F 41.0 °F 93% 30.42 in 10.0 mi North 4.6 mph - N/A   Overcast
8:15 PM 42.8 °F - 41.0 °F 93% 30.43 in 10.0 mi Calm Calm - N/A   Overcast
8:35 PM 42.8 °F 40.1 °F 41.0 °F 93% 30.43 in 10.0 mi NNW 4.6 mph - N/A   Overcast
8:55 PM 42.8 °F 41.1 °F 41.0 °F 93% 30.43 in 10.0 mi North 3.5 mph - N/A   Overcast
9:15 PM 42.8 °F 41.1 °F 41.0 °F 93% 30.43 in 10.0 mi NNW 3.5 mph - N/A   Overcast
9:35 PM 42.8 °F 41.1 °F 41.0 °F 93% 30.44 in 10.0 mi NW 3.5 mph - N/A   Overcast
9:55 PM 42.8 °F 39.3 °F 39.2 °F 87% 30.45 in 10.0 mi NNW 5.8 mph - N/A   Overcast
10:15 PM 42.8 °F 38.6 °F 37.4 °F 81% 30.45 in 10.0 mi NNW 6.9 mph - N/A   Overcast
10:35 PM 42.8 °F 38.6 °F 35.6 °F 76% 30.45 in 10.0 mi NNW 6.9 mph - N/A   Overcast
10:55 PM 41.0 °F 36.4 °F 35.6 °F 81% 30.45 in 10.0 mi NNW 6.9 mph - N/A   Overcast
11:15 PM 41.0 °F 36.4 °F 33.8 °F 76% 30.45 in 10.0 mi NNW 6.9 mph 17.3 mph N/A   Overcast
11:35 PM 41.0 °F 34.7 °F 32.0 °F 70% 30.45 in 10.0 mi NNW 10.4 mph - N/A   Overcast
11:55 PM 39.2 °F 34.2 °F 32.0 °F 75% 30.45 in 10.0 mi NNW 6.9 mph - N/A   Overcast